This is the latest recevied weather packets stored in our database for station/object W8BS. If no packets are shown the sender has not sent any weather packets the latest 10 day(s).
| Time | Temp. | Humidity | Pressure | Rain* | Wind** | Luminosity | Snow |
|---|---|---|---|---|---|---|---|
| 1778017094 | 21.67° C | 46% | 1010.1 hPa | 0 mm | - | 161 W/m² | - |
| 1778016792 | 21.67° C | 46% | 1010.2 hPa | 0 mm | - | 145 W/m² | - |
| 1778016488 | 22.22° C | 45% | 1010.1 hPa | 0 mm | - | 200 W/m² | - |
| 1778016185 | 22.78° C | 46% | 1010.2 hPa | 0 mm | - | 216 W/m² | - |
| 1778015881 | 22.78° C | 44% | 1009.9 hPa | 0 mm | - | 325 W/m² | - |
| 1778015579 | 22.78° C | 44% | 1010.1 hPa | 0 mm | - | 391 W/m² | - |
| 1778015275 | 22.78° C | 46% | 1010.2 hPa | 0 mm | - | 413 W/m² | - |
| 1778014972 | 22.78° C | 47% | 1010.1 hPa | 0 mm | - | 376 W/m² | - |
| 1778014669 | 22.22° C | 47% | 1010.4 hPa | 0 mm | - | 377 W/m² | - |
| 1778014368 | 22.22° C | 48% | 1010.1 hPa | 0 mm | - | 367 W/m² | - |
| 1778014064 | 21.67° C | 47% | 1010.3 hPa | 0 mm | - | 373 W/m² | - |
| 1778013762 | 22.22° C | 47% | 1010.3 hPa | 0 mm | - | 339 W/m² | - |
| 1778013459 | 22.22° C | 47% | 1010.1 hPa | 0 mm | - | 300 W/m² | - |
| 1778013156 | 22.22° C | 47% | 1010.3 hPa | 0 mm | - | 317 W/m² | - |
| 1778012851 | 22.78° C | 47% | 1010.2 hPa | 0 mm | - | 282 W/m² | - |
| 1778012547 | 22.78° C | 46% | 1010.2 hPa | 0 mm | - | 295 W/m² | - |
| 1778012244 | 22.78° C | 45% | 1010.4 hPa | 0 mm | - | 358 W/m² | - |
| 1778011942 | 22.78° C | 46% | 1010.2 hPa | 0 mm | - | 370 W/m² | - |
| 1778011640 | 22.78° C | 45% | 1010.3 hPa | 0 mm | - | 356 W/m² | - |
| 1778011337 | 22.78° C | 45% | 1010.4 hPa | 0 mm | - | 343 W/m² | - |
| 1778011032 | 22.78° C | 45% | 1010.4 hPa | 0 mm | - | 350 W/m² | - |
| 1778010730 | 22.22° C | 45% | 1010.3 hPa | 0 mm | - | 384 W/m² | - |
| 1778010427 | 22.22° C | 45% | 1010.3 hPa | 0 mm | - | 360 W/m² | - |
| 1778010124 | 22.78° C | 45% | 1010.6 hPa | 0 mm | - | 346 W/m² | - |
| 1778009820 | 22.78° C | 45% | 1010.4 hPa | 0 mm | - | 327 W/m² | - |
* Rain latest hour (hover to see other rain measurements)
** Current wind speed in m/s (hover to see current wind gust speed)